Weather History for KTVL - July, 2012

Change the Weather History Date:

Monday, July 2, 2012

  Actual Average Record
Temperature  
Mean Temperature 62 °F 59 °F  
Max Temperature 80 °F 78 °F 90 °F (2013)
Min Temperature 43 °F 40 °F 29 °F (1976)
Degree Days  
Heating Degree Days 3 6  
Month to date heating degree days 11 13  
Since 1 June heating degree days 323 323  
Since 1 July heating degree days 11 13  
Cooling Degree Days 0 0  
Month to date cooling degree days 0 0  
Year to date cooling degree days 0 1  
Since 1 June cooling degree days 0 1  
Growing Degree Days 11 (Base 50)    
Moisture  
Dew Point 47 °F    
Average Humidity 62    
Maximum Humidity 93    
Minimum Humidity 30    
Precipitation  
Precipitation 0.00 in - 0.40 in (1980)
Month to date precipitation 0.00  
Year to date precipitation 10.32  
Sea Level Pressure  
Sea Level Pressure 29.94 in    
Wind  
Wind Speed 4 mph (South)    
Max Wind Speed 20 mph    
Max Gust Speed 28 mph    
Visibility 10 miles    
Events      
T = Trace of Precipitation, MM = Missing Value Source: NWS Daily Summary

Daily Weather History Graph

Daily Weather History Graph

Search for Another Location

Airport or City:

Trip Planner

Search our weather history database for the weather conditions in past years. The results will help you decide how hot, cold, wet, or windy it might be!

Date:

Astronomy

Jul. 02, 2012 Rise Set
Actual Time 5:39 AM PDT 8:29 PM PDT
Civil Twilight 5:07 AM PDT 9:00 PM PDT
Nautical Twilight 4:27 AM PDT 9:40 PM PDT
Astronomical Twilight 3:41 AM PDT 10:26 PM PDT
Moon 7:36 PM PDT (7/2) 4:31 AM PDT (7/2)
Length of Visible Light 15h 53m
Length of Day
14h 49m
Waxing Gibbous, 99% of the Moon is Illuminated
Jul 2
Waxing Gibbous
Jul 3
Full
Jul 10
Last Quarter
Jul 18
New
Jul 26
First Quarter

Hourly Weather History & Observations

Time (PDT) Temp. Windchill Dew Point Humidity Pressure Visibility Wind Dir Wind Speed Gust Speed Precip Events Conditions
12:53 AM 50.0 °F - 46.0 °F 86% 29.95 in 10.0 mi Calm Calm - N/A   Clear
1:53 AM 48.9 °F - 45.0 °F 86% 29.94 in 10.0 mi Calm Calm - N/A   Clear
2:53 AM 48.0 °F - 45.0 °F 89% 29.93 in 10.0 mi Calm Calm - N/A   Clear
3:53 AM 46.0 °F - 44.1 °F 93% 29.94 in 10.0 mi Calm Calm - N/A   Clear
4:53 AM 45.0 °F 41.8 °F 42.1 °F 90% 29.94 in 10.0 mi South 5.8 mph - N/A   Clear
5:53 AM 44.1 °F 42.5 °F 41.0 °F 89% 29.94 in 10.0 mi SSE 3.5 mph - N/A   Clear
6:53 AM 46.9 °F - 43.0 °F 86% 29.95 in 10.0 mi Calm Calm - N/A   Clear
7:53 AM 55.9 °F - 46.9 °F 72% 29.95 in 10.0 mi Calm Calm - N/A   Clear
8:53 AM 64.0 °F - 48.9 °F 58% 29.93 in 10.0 mi NNE 4.6 mph - N/A   Clear
9:53 AM 68.0 °F - 48.9 °F 50% 29.91 in 10.0 mi NE 5.8 mph - N/A   Clear
10:53 AM 71.1 °F - 48.9 °F 45% 29.90 in 10.0 mi NNE 8.1 mph - N/A   Clear
11:53 AM 73.9 °F - 46.0 °F 37% 29.90 in 10.0 mi Variable 5.8 mph - N/A   Clear
12:53 PM 75.9 °F - 45.0 °F 33% 29.90 in 10.0 mi NNE 9.2 mph - N/A   Clear
1:53 PM 77.0 °F - 46.0 °F 33% 29.90 in 10.0 mi Variable 5.8 mph - N/A   Clear
2:53 PM 78.1 °F - 48.9 °F 36% 29.89 in 10.0 mi Variable 3.5 mph - N/A   Partly Cloudy
3:53 PM 78.8 °F - 44.6 °F 30% 30.06 in 10.0 mi SW 11.5 mph 18.4 mph N/A   Clear
4:53 PM 77.0 °F - 48.9 °F 37% 29.90 in 10.0 mi South 18.4 mph 23.0 mph N/A   Clear
5:53 PM 73.9 °F - 50.0 °F 43% 29.91 in 10.0 mi South 12.7 mph 18.4 mph N/A   Clear
6:53 PM 71.1 °F - 50.0 °F 47% 29.92 in 10.0 mi South 11.5 mph - N/A   Clear
7:53 PM 66.2 °F - 50.0 °F 56% 30.09 in 10.0 mi SSW 9.2 mph - N/A   Clear
8:53 PM 62.1 °F - 50.0 °F 65% 29.93 in 10.0 mi SSW 6.9 mph - N/A   Clear
9:53 PM 62.1 °F - 48.9 °F 62% 29.93 in 10.0 mi South 10.4 mph - N/A   Clear
10:53 PM 57.0 °F - 48.9 °F 74% 29.93 in 10.0 mi South 8.1 mph - N/A   Clear
11:53 PM 54.0 °F - 46.9 °F 77% 29.93 in 10.0 mi Calm Calm - N/A   Clear